Weather History for Agadir Al Massira, Morocco

Change the Weather History Date:

Saturday, October 15, 2011

  Actual Average Record
Temperature  
Mean Temperature 74 °F -  
Max Temperature 89 °F - - ()
Min Temperature 58 °F - - ()
Cooling Degree Days 8    
Growing Degree Days 24 (Base 50)    
Moisture  
Dew Point 55 °F    
Average Humidity 60    
Maximum Humidity 88    
Minimum Humidity 25    
Precipitation  
Precipitation 0.00 in - - ()
Sea Level Pressure  
Sea Level Pressure 29.99 in    
Wind  
Wind Speed 5 mph ()    
Max Wind Speed 15 mph    
Max Gust Speed -    
Visibility 5.9 miles    
Events      
T = Trace of Precipitation, MM = Missing Value Source: Averaged Metar Reports

Daily Weather History Graph

Daily Weather History Graph

Search for Another Location

Airport:

Trip Planner

Search our weather history database for the weather conditions in past years. The results will help you decide how hot, cold, wet, or windy it might be!

Date:

Astronomy

Oct. 15, 2011 Rise Set
Actual Time 6:39 AM WET 6:07 PM WET
Civil Twilight 6:15 AM WET 6:31 PM WET
Nautical Twilight 5:47 AM WET 6:59 PM WET
Astronomical Twilight 5:19 AM WET 7:26 PM WET
Moon 8:10 PM WET (10/15) 9:35 AM WET (10/15)
Length of Visible Light 12h 15m
Length of Day
11h 27m
Waning Gibbous, 90% of the Moon is Illuminated
Oct 15
Waning Gibbous
Oct 20
Last Quarter
Oct 26
New
Nov 2
First Quarter
Nov 10
Full

Hourly Weather History & Observations

Time (WET) Temp. Heat Index Dew Point Humidity Pressure Visibility Wind Dir Wind Speed Gust Speed Precip Events Conditions
12:00 AM 63 °F - 56 °F 73% 30.00 in 6 mi Calm Calm - -   Scattered Clouds
12:00 AM 62.6 °F - 57.2 °F 82% 29.98 in - Calm Calm - N/A   Clear
1:00 AM 64.4 °F - 57.2 °F 77% 29.98 in - ESE 5.8 mph - N/A   Clear
2:00 AM 64.4 °F - 57.2 °F 77% 29.98 in - ENE 3.5 mph - N/A   Clear
3:00 AM 63 °F - 55 °F 68% 29.98 in 6 mi ENE 5.8 mph - -   Scattered Clouds
3:00 AM 62.6 °F - 55.4 °F 77% 29.98 in - ENE 5.8 mph - N/A   Clear
4:00 AM 62.6 °F - 55.4 °F 77% 29.98 in - ENE 5.8 mph - N/A   Clear
5:00 AM 59.0 °F - 51.8 °F 77% 29.98 in 6.2 mi ENE 3.5 mph - N/A   Unknown
6:00 AM 58 °F - 52 °F 74% 29.99 in 6 mi ENE 5.8 mph - -   Scattered Clouds
6:00 AM 59.0 °F - 51.8 °F 77% 29.98 in - ENE 5.8 mph - N/A   Clear
7:00 AM 59.0 °F - 51.8 °F 77% 29.98 in - SE 2.3 mph - N/A   Clear
8:00 AM 68.0 °F - 53.6 °F 60% 30.01 in - East 5.8 mph - N/A   Clear
9:00 AM 77 °F - 48 °F 25% 30.01 in 6 mi ENE 9.2 mph - -  
9:00 AM 77.0 °F - 48.2 °F 36% 30.01 in - ENE 9.2 mph - N/A   Clear
10:00 AM 84.2 °F - 46.4 °F 27% 30.01 in - NE 6.9 mph - N/A   Clear
11:00 AM 86.0 °F - 48.2 °F 27% 30.01 in - WNW 6.9 mph - N/A   Clear
12:00 PM 80 °F - 61 °F 41% 30.00 in 6 mi West 15.0 mph - -  
12:00 PM 80.6 °F 81.5 °F 60.8 °F 51% 30.01 in - West 15.0 mph - N/A   Clear
1:00 PM 78.8 °F - 59.0 °F 51% 29.98 in 6.2 mi West 12.7 mph - N/A   Unknown
2:00 PM 80.6 °F 81.1 °F 59.0 °F 48% 29.98 in 6.2 mi West 13.8 mph - N/A   Partly Cloudy
3:00 PM 84 °F - 54 °F 25% 29.95 in 6 mi West 11.5 mph - -   Scattered Clouds
3:00 PM 84.2 °F 82.8 °F 53.6 °F 35% 29.95 in 6.2 mi West 11.5 mph - N/A   Partly Cloudy
4:00 PM 82.4 °F 81.4 °F 53.6 °F 37% 29.95 in 6.2 mi WSW 10.4 mph - N/A   Partly Cloudy
5:00 PM 78.8 °F - 55.4 °F 44% 29.95 in 6.2 mi SW 11.5 mph - N/A   Unknown
6:00 PM 75 °F - 57 °F 43% 29.96 in 6 mi SW 8.1 mph - -   Scattered Clouds
6:00 PM 75.2 °F - 57.2 °F 53% 29.95 in 6.2 mi SW 8.1 mph - N/A   Partly Cloudy
7:00 PM 73.4 °F - 57.2 °F 57% 29.95 in 6.2 mi SSW 8.1 mph - N/A   Partly Cloudy
8:00 PM 66.2 °F - 60.8 °F 83% 30.01 in 6.2 mi West 6.9 mph - N/A   Scattered Clouds
9:00 PM 65 °F - 61 °F 83% 30.02 in 6 mi WNW 5.8 mph - -   Scattered Clouds
9:00 PM 66.2 °F - 60.8 °F 83% 30.01 in 6.2 mi WNW 5.8 mph - N/A   Scattered Clouds
10:00 PM 64.4 °F - 60.8 °F 88% 30.01 in 3.7 mi Calm Calm - N/A   Scattered Clouds
11:00 PM 62.6 °F - 59.0 °F 88% 30.04 in 3.7 mi East 3.5 mph - N/A   Scattered Clouds